| time (UTC) | temp C | wind direction | speed KPH | gust KPH | rain 1hr cm | rain 24hr cm | rain mn cm | humidity % | barometer mb |
| 20260505053009 | 13 | 197 | 0.0 | 0.0 | 0.00 | 0.00 | 0.00 | 72 | 1011.4 |
| 20260505051506 | 13 | 197 | 0.0 | 0.0 | 0.00 | 0.00 | 0.00 | 72 | 1011.4 |
| 20260505041601 | 13 | 197 | 0.0 | 0.0 | 0.00 | 0.00 | 0.00 | 70 | 1011.2 |
| 20260505040059 | 13 | 197 | 0.0 | 0.0 | 0.00 | 0.00 | 0.00 | 71 | 1011.1 |
| 20260505034555 | 13 | 197 | 0.0 | 0.0 | 0.00 | 0.00 | 0.00 | 71 | 1011.0 |
| 20260505033055 | 13 | 197 | 0.0 | 0.0 | 0.00 | 0.00 | 0.00 | 71 | 1010.9 |
| 20260505031556 | 14 | 197 | 0.0 | 0.0 | 0.00 | 0.00 | 0.00 | 69 | 1010.8 |
| 20260505030053 | 13 | 197 | 0.0 | 1.6 | 0.00 | 0.00 | 0.00 | 69 | 1011.0 |
| 20260505024607 | 14 | 197 | 0.0 | 0.0 | 0.00 | 0.00 | 0.00 | 69 | 1011.1 |
| 20260505023052 | 13 | 197 | 0.0 | 0.0 | 0.00 | 0.00 | 0.00 | 70 | 1011.0 |
| 20260505021608 | 13 | 197 | 0.0 | 0.0 | 0.00 | 0.00 | 0.00 | 69 | 1010.9 |
| 20260505020050 | 14 | 197 | 0.0 | 0.0 | 0.00 | 0.00 | 0.00 | 66 | 1011.0 |
| 20260505014551 | 15 | 197 | 0.0 | 0.0 | 0.00 | 0.00 | 0.00 | 65 | 1011.0 |
| 20260505013050 | 15 | 197 | 0.0 | 0.0 | 0.00 | 0.00 | 0.00 | 64 | 1011.0 |
| 20260505011555 | 15 | 197 | 0.0 | 0.0 | 0.00 | 0.00 | 0.00 | 63 | 1010.8 |
| 20260505010049 | 15 | 197 | 0.0 | 0.0 | 0.00 | 0.00 | 0.00 | 61 | 1010.5 |
| 20260505004550 | 16 | 197 | 0.0 | 0.0 | 0.00 | 0.00 | 0.00 | 61 | 1010.3 |
| 20260505003048 | 16 | 200 | 0.0 | 1.6 | 0.00 | 0.00 | 0.00 | 59 | 1010.4 |
| 20260505001548 | 16 | 200 | 0.0 | 0.0 | 0.00 | 0.00 | 0.00 | 59 | 1010.3 |
| 20260505000046 | 17 | 202 | 0.0 | 0.0 | 0.00 | 0.00 | 0.00 | 56 | 1010.3 |
| 20260504234547 | 17 | 187 | 0.0 | 0.0 | 0.00 | 0.00 | 0.00 | 55 | 1010.2 |
| 20260504233056 | 18 | 187 | 0.0 | 1.6 | 0.00 | 0.00 | 0.00 | 54 | 1010.2 |
| 20260504231544 | 18 | 149 | 0.0 | 8.0 | 0.00 | 0.00 | 0.00 | 52 | 1010.2 |
| 20260504230043 | 19 | 194 | 4.8 | 11.3 | 0.00 | 0.00 | 0.00 | 49 | 1010.2 |
| 20260504224540 | 20 | 174 | 0.0 | 6.4 | 0.00 | 0.00 | 0.00 | 50 | 1010.2 |
| 20260504223040 | 20 | 208 | 0.0 | 3.2 | 0.00 | 0.00 | 0.00 | 50 | 1010.2 |
| 20260504221538 | 21 | 173 | 0.0 | 6.4 | 0.00 | 0.00 | 0.00 | 46 | 1010.1 |
| 20260504220033 | 21 | 248 | 0.0 | 17.7 | 0.00 | 0.00 | 0.00 | 43 | 1010.0 |
| 20260504214536 | 21 | 200 | 3.2 | 9.7 | 0.00 | 0.00 | 0.00 | 46 | 1010.2 |
| 20260504213031 | 21 | 185 | 0.0 | 8.0 | 0.00 | 0.00 | 0.00 | 44 | 1010.2 |
| 20260504211530 | 22 | 226 | 3.2 | 12.9 | 0.00 | 0.00 | 0.00 | 42 | 1010.2 |
| 20260504210029 | 22 | 219 | 1.6 | 11.3 | 0.00 | 0.00 | 0.00 | 40 | 1010.2 |
| 20260504204531 | 22 | 160 | 0.0 | 12.9 | 0.00 | 0.00 | 0.00 | 40 | 1010.3 |
| 20260504203025 | 22 | 126 | 3.2 | 8.0 | 0.00 | 0.00 | 0.00 | 42 | 1010.4 |
| 20260504201522 | 22 | 211 | 3.2 | 12.9 | 0.00 | 0.00 | 0.00 | 40 | 1010.5 |
| 20260504200020 | 22 | 277 | 0.0 | 12.9 | 0.00 | 0.00 | 0.00 | 39 | 1010.8 |
| 20260504194516 | 22 | 186 | 4.8 | 16.1 | 0.00 | 0.00 | 0.00 | 39 | 1011.0 |
| 20260504193014 | 22 | 198 | 3.2 | 11.3 | 0.00 | 0.00 | 0.00 | 39 | 1011.4 |
| 20260504191514 | 22 | 200 | 4.8 | 14.5 | 0.00 | 0.00 | 0.00 | 38 | 1011.5 |
| 20260504190007 | 22 | 210 | 3.2 | 11.3 | 0.00 | 0.00 | 0.00 | 40 | 1011.9 |
| 20260504184506 | 22 | 213 | 0.0 | 14.5 | 0.00 | 0.00 | 0.00 | 37 | 1012.1 |
| 20260504183003 | 22 | 298 | 6.4 | 12.9 | 0.00 | 0.00 | 0.00 | 37 | 1012.2 |
| 20260504181606 | 22 | 224 | 3.2 | 9.7 | 0.00 | 0.00 | 0.00 | 43 | 1012.3 |
| 20260504180056 | 21 | 247 | 0.0 | 12.9 | 0.00 | 0.00 | 0.00 | 42 | 1012.4 |
| 20260504174552 | 21 | 293 | 1.6 | 9.7 | 0.00 | 0.00 | 0.00 | 38 | 1012.6 |
| 20260504173049 | 20 | 229 | 1.6 | 14.5 | 0.00 | 0.00 | 0.00 | 37 | 1012.8 |
| 20260504171546 | 21 | 133 | 0.0 | 14.5 | 0.00 | 0.00 | 0.00 | 41 | 1013.0 |
| 20260504081528 | 1 | 139 | 0.0 | 0.0 | 0.00 | 0.00 | 0.00 | 92 | 1016.0 |